Location: Unspecified
(0.0000°N, 0.0000°E)
Time: 06:01:17
(UTC+00:00)

X-37B - Pass Details

Date: 01 August 2020
Orbit: 379 x 395 km, 45.0° (Epoch: 12 August)

Event Time Altitude Azimuth Distance (km) Brightness Sun altitude
Rises 19:27:05 0° 219° (SW) 2,239 4.7 -19.2°
Reaches altitude 10° 19:29:09 10° 217° (SW) 1,387 3.6 -19.7°
Enters shadow 19:31:06 34° 208° (SSW) 638 1.7 -20.1°
